WW6Q Weather Reports


time (UTC)temp
C
wind
direction
speed
KPH
gust
KPH
rain 1hr
cm
rain 24hr
cm
rain mn
cm
humidity
%
barometer
mb
20260906105248 15 74 0.0 0.0 0.00 0.00 0.00 97 1017.1
20260906104743 15 76 1.6 1.6 0.00 0.00 0.00 97 1017.3
20260906104242 15 77 1.6 1.6 0.00 0.00 0.00 97 1017.3
20260906103740 15 80 0.0 0.0 0.00 0.00 0.00 97 1017.5
20260906103240 15 80 1.6 1.6 0.00 0.00 0.00 96 1017.3
20260906102736 15 82 0.0 1.6 0.00 0.00 0.00 96 1017.1
20260906102234 15 82 1.6 1.6 0.00 0.00 0.00 97 1016.9
20260906101730 15 83 1.6 3.2 0.00 0.00 0.00 97 1017.0
20260906101225 15 89 0.0 0.0 0.00 0.00 0.00 97 1016.8
20260906100721 15 90 1.6 1.6 0.00 0.00 0.00 97 1017.0
20260906100220 15 90 0.0 0.0 0.00 0.00 0.00 97 1016.9
20260906095721 15 89 0.0 0.0 0.00 0.00 0.00 97 1016.9
20260906095216 15 60 0.0 0.0 0.00 0.00 0.00 96 1016.8
20260906094714 15 79 0.0 0.0 0.00 0.00 0.00 96 1017.1
20260906094210 15 79 0.0 0.0 0.00 0.00 0.00 95 1016.9
20260906093707 15 79 0.0 0.0 0.00 0.00 0.00 95 1017.0
20260906093202 16 79 0.0 0.0 0.00 0.00 0.00 95 1017.0
20260906092657 16 79 0.0 0.0 0.00 0.00 0.00 96 1017.0
20260906092156 16 90 0.0 0.0 0.00 0.00 0.00 98 1017.0
20260906091653 15 90 1.6 1.6 0.00 0.00 0.00 99 1017.1
20260906091149 15 92 0.0 0.0 0.00 0.00 0.00 99 1017.0
20260906090645 15 93 0.0 0.0 0.00 0.00 0.00 99 1016.9
20260906090144 15 93 0.0 0.0 0.00 0.00 0.00 98 1016.9
20260906085643 15 93 0.0 1.6 0.00 0.00 0.00 98 1017.2
20260906085137 15 93 0.0 0.0 0.00 0.00 0.00 98 1017.0
20260906084632 15 93 0.0 0.0 0.00 0.00 0.00 98 1017.1
20260906084131 15 92 0.0 0.0 0.00 0.00 0.00 98 1017.1
20260906083627 15 93 0.0 0.0 0.00 0.00 0.00 99 1017.1
20260906083127 15 93 0.0 0.0 0.00 0.00 0.00 98 1016.9
20260906082623 15 93 0.0 0.0 0.00 0.00 0.00 98 1016.7
20260906082118 15 93 0.0 0.0 0.00 0.00 0.00 98 1017.0
20260906081614 15 93 0.0 0.0 0.00 0.00 0.00 98 1016.8
20260906081108 16 93 0.0 0.0 0.00 0.00 0.00 98 1016.7
20260906080605 16 93 0.0 0.0 0.00 0.00 0.00 98 1016.7
20260906075555 16 92 0.0 0.0 0.00 0.00 0.00 97 1016.7
20260906075050 16 93 0.0 0.0 0.00 0.00 0.00 96 1016.9
20260906074545 16 93 0.0 0.0 0.00 0.00 0.00 95 1016.7
20260906074043 16 93 0.0 0.0 0.00 0.00 0.00 95 1017.0
20260906073538 16 93 0.0 0.0 0.00 0.00 0.00 94 1017.2
20260906073035 16 93 0.0 0.0 0.00 0.00 0.00 95 1016.9
20260906072535 16 93 0.0 0.0 0.00 0.00 0.00 96 1017.0
20260906072031 16 93 0.0 0.0 0.00 0.00 0.00 94 1017.0
20260906071527 16 93 1.6 1.6 0.00 0.00 0.00 94 1017.0
20260906071022 16 93 0.0 0.0 0.00 0.00 0.00 93 1016.9
20260906070518 16 93 0.0 0.0 0.00 0.00 0.00 93 1016.7
20260906070014 17 93 0.0 0.0 0.00 0.00 0.00 92 1016.8
20260906065513 17 92 0.0 0.0 0.00 0.00 0.00 90 1016.7
20260906065009 17 93 0.0 0.0 0.00 0.00 0.00 89 1016.6
20260906064505 17 93 0.0 0.0 0.00 0.00 0.00 87 1017.0
20260906064000 17 92 1.6 1.6 0.00 0.00 0.00 86 1016.9
20260906063456 17 102 0.0 0.0 0.00 0.00 0.00 85 1016.8
20260906062955 18 77 1.6 1.6 0.00 0.00 0.00 85 1016.9
20260906062450 18 87 3.2 3.2 0.00 0.00 0.00 85 1016.8
20260906061945 18 74 0.0 0.0 0.00 0.00 0.00 85 1016.5
20260906061441 18 100 3.2 4.8 0.00 0.00 0.00 84 1016.7
20260906060936 18 79 1.6 1.6 0.00 0.00 0.00 85 1016.6
20260906060433 18 79 1.6 3.2 0.00 0.00 0.00 84 1016.9
20260906055929 18 80 1.6 1.6 0.00 0.00 0.00 85 1016.7
20260906055425 18 85 0.0 1.6 0.00 0.00 0.00 84 1016.5
20260906054920 18 82 0.0 0.0 0.00 0.00 0.00 84 1016.7
20260906054414 18 93 1.6 1.6 0.00 0.00 0.00 85 1016.6
20260906053911 18 92 4.8 6.4 0.00 0.00 0.00 85 1016.3
20260906053406 19 101 1.6 1.6 0.00 0.00 0.00 86 1016.5
20260906052902 19 74 1.6 1.6 0.00 0.00 0.00 87 1016.4
20260906052358 19 104 6.4 6.4 0.00 0.00 0.00 87 1016.5
20260906051855 19 73 3.2 3.2 0.00 0.00 0.00 88 1016.6
20260906051354 20 69 6.4 9.7 0.00 0.00 0.00 88 1016.4
20260906050850 20 97 6.4 6.4 0.00 0.00 0.00 88 1016.4
20260906050345 20 77 1.6 1.6 0.00 0.00 0.00 89 1016.4
20260906045844 20 81 3.2 3.2 0.00 0.00 0.00 91 1016.2
20260906045338 20 94 1.6 1.6 0.00 0.00 0.00 94 1016.3
20260906044835 20 63 0.0 1.6 0.00 0.00 0.00 96 1016.3
20260906044335 20 89 0.0 1.6 0.00 0.00 0.00 96 1016.2
20260906043830 20 102 3.2 4.8 0.00 0.00 0.00 96 1016.2
20260906043326 20 90 1.6 1.6 0.00 0.00 0.00 97 1016.1
20260906042827 20 90 0.0 0.0 0.00 0.00 0.00 97 1016.1
20260906042325 20 88 0.0 0.0 0.00 0.00 0.00 97 1016.1
20260906041821 20 88 0.0 0.0 0.00 0.00 0.00 97 1016.0
20260906041317 20 85 0.0 0.0 0.00 0.00 0.00 97 1015.9
20260906040811 20 85 0.0 0.0 0.00 0.00 0.00 97 1015.8
20260906040307 20 85 1.6 1.6 0.00 0.00 0.00 97 1016.1
20260906035802 20 86 0.0 0.0 0.00 0.00 0.00 96 1016.0
20260906035257 20 86 0.0 0.0 0.00 0.00 0.00 96 1015.8
20260906034757 20 86 0.0 0.0 0.00 0.00 0.00 96 1015.8
20260906034258 20 86 0.0 0.0 0.00 0.00 0.00 95 1015.9
20260906033754 20 87 1.6 1.6 0.00 0.00 0.00 95 1015.7
20260906033253 20 84 0.0 0.0 0.00 0.00 0.00 95 1015.8
20260906032749 20 84 0.0 0.0 0.00 0.00 0.00 95 1015.5
20260906032250 20 87 0.0 0.0 0.00 0.00 0.00 95 1015.6
20260906031745 20 87 0.0 0.0 0.00 0.00 0.00 95 1015.7
20260906031241 20 85 1.6 1.6 0.00 0.00 0.00 95 1015.7
20260906030740 20 88 0.0 0.0 0.00 0.00 0.00 95 1015.7
20260906030236 20 46 0.0 0.0 0.00 0.00 0.00 95 1015.5
20260906025735 20 46 0.0 0.0 0.00 0.00 0.00 95 1015.8
20260906025235 20 44 0.0 0.0 0.00 0.00 0.00 95 1015.7
20260906024734 20 44 0.0 0.0 0.00 0.00 0.00 95 1015.6
20260906024233 20 44 0.0 0.0 0.00 0.00 0.00 94 1015.6
20260906023729 21 77 0.0 0.0 0.00 0.00 0.00 94 1015.8
20260906023225 21 77 0.0 0.0 0.00 0.00 0.00 93 1015.6
20260906022720 21 77 0.0 0.0 0.00 0.00 0.00 93 1015.6
20260906022215 21 77 0.0 0.0 0.00 0.00 0.00 93 1015.7
20260906021712 21 77 1.6 1.6 0.00 0.00 0.00 93 1015.4
20260906021210 21 77 0.0 0.0 0.00 0.00 0.00 93 1015.5
20260906020705 21 77 0.0 0.0 0.00 0.00 0.00 93 1015.6
20260906020159 21 77 0.0 0.0 0.00 0.00 0.00 92 1015.4
20260906015654 21 77 1.6 1.6 0.00 0.00 0.00 92 1015.3
20260906015153 21 77 1.6 1.6 0.00 0.00 0.00 91 1015.3
20260906014652 21 77 0.0 0.0 0.00 0.00 0.00 91 1015.2
20260906014149 21 77 0.0 0.0 0.00 0.00 0.00 90 1015.1
20260906013644 21 92 0.0 0.0 0.00 0.00 0.00 90 1015.1
20260906013140 21 98 0.0 0.0 0.00 0.00 0.00 90 1015.0
20260906012640 21 22 3.2 3.2 0.00 0.00 0.00 89 1014.9
20260906012140 21 84 0.0 0.0 0.00 0.00 0.00 90 1014.9
20260906011636 21 93 1.6 1.6 0.00 0.00 0.00 90 1014.9
20260906011130 21 80 0.0 0.0 0.00 0.00 0.00 90 1014.8
20260906010626 21 80 3.2 3.2 0.00 0.00 0.00 91 1014.8
20260906010122 21 88 0.0 0.0 0.00 0.00 0.00 91 1014.9
20260906005621 21 60 3.2 4.8 0.00 0.00 0.00 90 1014.8
20260906005121 21 77 0.0 0.0 0.00 0.00 0.00 90 1014.8
20260906004620 21 75 1.6 1.6 0.00 0.00 0.00 89 1014.6
20260906004115 21 88 1.6 1.6 0.00 0.00 0.00 89 1014.6
20260906003611 21 89 0.0 0.0 0.00 0.00 0.00 88 1014.6
20260906003107 21 70 3.2 3.2 0.00 0.00 0.00 88 1014.7
20260906002607 21 87 3.2 3.2 0.00 0.00 0.00 88 1014.9
20260906002102 21 98 0.0 0.0 0.00 0.00 0.00 88 1014.5
20260906001557 21 92 1.6 1.6 0.00 0.00 0.00 88 1014.7
20260906001057 22 76 3.2 3.2 0.00 0.00 0.00 88 1014.6
20260906000553 22 101 1.6 1.6 0.00 0.00 0.00 87 1014.7
20260906000048 22 86 1.6 1.6 0.00 0.00 0.00 87 1014.7
20260905235547 22 84 1.6 1.6 0.00 0.00 0.00 86 1014.7
20260905235042 22 101 1.6 3.2 0.00 0.00 0.00 86 1014.8
20260905234538 22 82 1.6 1.6 0.00 0.00 0.00 85 1014.8
20260905234032 22 71 1.6 1.6 0.00 0.00 0.00 85 1014.9
20260905233527 22 80 0.0 0.0 0.00 0.00 0.00 84 1014.6
20260905233027 22 63 4.8 6.4 0.00 0.00 0.00 84 1014.5
20260905232522 22 59 3.2 4.8 0.00 0.00 0.00 83 1014.5
20260905232018 22 85 1.6 1.6 0.00 0.00 0.00 84 1014.6
20260905231513 22 48 6.4 9.7 0.00 0.00 0.00 84 1014.6
20260905231010 22 98 0.0 1.6 0.00 0.00 0.00 84 1014.5
20260905230508 22 90 1.6 3.2 0.00 0.00 0.00 86 1014.6
20260905230007 22 85 0.0 1.6 0.00 0.00 0.00 88 1014.4
20260905225501 22 29 3.2 3.2 0.00 0.00 0.00 87 1014.5
20260905224956 22 72 6.4 6.4 0.00 0.00 0.00 87 1014.6
20260905224452 22 90 1.6 1.6 0.00 0.00 0.00 88 1014.4
20260905223951 22 81 1.6 1.6 0.00 0.00 0.00 88 1014.2
20260905223449 22 77 3.2 4.8 0.00 0.00 0.00 87 1014.2
20260905222944 22 82 1.6 1.6 0.00 0.00 0.00 88 1014.2
20260905222443 22 63 3.2 3.2 0.00 0.00 0.00 87 1014.0
20260905221939 22 95 1.6 1.6 0.00 0.00 0.00 88 1014.0
20260905221436 22 65 4.8 4.8 0.00 0.00 0.00 88 1014.1
20260905220932 23 80 0.0 1.6 0.00 0.00 0.00 88 1013.9
20260905220427 23 92 3.2 6.4 0.00 0.00 0.00 87 1013.9
20260905215926 23 30 4.8 6.4 0.00 0.00 0.00 87 1014.0
20260905215422 23 80 0.0 1.6 0.00 0.00 0.00 87 1013.7
20260905214918 23 80 4.8 9.7 0.00 0.00 0.00 86 1013.6
20260905214414 23 138 3.2 4.8 0.00 0.00 0.00 85 1013.6
20260905213914 23 84 6.4 6.4 0.00 0.00 0.00 85 1013.6
20260905213410 23 81 3.2 4.8 0.00 0.00 0.00 85 1013.4
20260905212905 24 114 3.2 6.4 0.00 0.00 0.00 84 1013.4
20260905212401 25 95 3.2 4.8 0.00 0.00 0.00 83 1013.3
20260905211859 25 78 1.6 1.6 0.00 0.00 0.00 82 1013.3
20260905211355 25 108 3.2 3.2 0.00 0.00 0.00 82 1013.2
20260905210851 25 77 6.4 9.7 0.00 0.00 0.00 82 1013.3
20260905210351 25 53 9.7 12.9 0.00 0.00 0.00 81 1013.3
20260905205850 25 92 3.2 4.8 0.00 0.00 0.00 82 1013.4
20260905205345 25 97 4.8 6.4 0.00 0.00 0.00 81 1013.6
20260905204844 25 31 4.8 4.8 0.00 0.00 0.00 81 1013.4
20260905204341 25 95 3.2 3.2 0.00 0.00 0.00 80 1013.4
20260905203839 25 115 3.2 3.2 0.00 0.00 0.00 81 1013.4
20260905203335 25 84 3.2 3.2 0.00 0.00 0.00 81 1013.5
20260905202831 25 331 4.8 6.4 0.00 0.00 0.00 82 1013.5
20260905202325 25 83 1.6 1.6 0.00 0.00 0.00 82 1013.7
20260905201821 25 93 3.2 3.2 0.00 0.00 0.00 81 1013.6
20260905201317 25 58 4.8 4.8 0.00 0.00 0.00 80 1013.5
20260905200816 25 104 1.6 1.6 0.00 0.00 0.00 81 1013.6
20260905200313 25 86 1.6 1.6 0.00 0.00 0.00 81 1013.7
20260905195810 25 93 0.0 0.0 0.00 0.00 0.00 80 1013.7
20260905195307 25 76 3.2 3.2 0.00 0.00 0.00 80 1013.6
20260905194801 25 86 0.0 0.0 0.00 0.00 0.00 81 1013.7
20260905194301 25 70 1.6 1.6 0.00 0.00 0.00 80 1013.7
20260905193800 25 44 3.2 3.2 0.00 0.00 0.00 81 1013.7
20260905193255 25 44 1.6 1.6 0.00 0.00 0.00 80 1013.9
20260905192750 25 44 0.0 0.0 0.00 0.00 0.00 81 1013.7
20260905192247 25 43 1.6 1.6 0.00 0.00 0.00 81 1013.7
20260905191746 25 47 1.6 1.6 0.00 0.00 0.00 80 1014.0
20260905191244 25 47 0.0 0.0 0.00 0.00 0.00 80 1014.0
20260905190743 25 45 1.6 1.6 0.00 0.00 0.00 80 1013.7
20260905190242 25 60 3.2 3.2 0.00 0.00 0.00 80 1014.0
20260905185736 25 63 1.6 1.6 0.00 2.31 2.31 79 1014.0
20260905185231 25 29 3.2 3.2 0.00 2.31 2.31 78 1014.1
20260905184731 25 57 1.6 1.6 0.00 2.31 2.31 81 1014.1
20260905184230 25 92 0.0 1.6 0.00 2.31 2.31 78 1014.0
20260905183729 26 159 1.6 1.6 0.00 2.31 2.31 77 1014.0
20260905183225 25 67 3.2 1.6 0.00 2.31 2.31 79 1014.0
20260905182725 25 86 1.6 1.6 0.00 2.31 2.31 81 1014.1
20260905182224 25 89 0.0 0.0 0.00 2.31 2.31 80 1014.0
20260905181720 26 87 1.6 1.6 0.00 2.31 2.31 78 1013.9
20260905181218 26 66 1.6 1.6 0.00 2.31 2.31 77 1014.2
20260905180713 25 95 3.2 3.2 0.00 2.31 2.31 78 1014.3
20260905180209 26 82 1.6 3.2 0.00 2.31 2.31 78 1014.1
20260905175708 26 117 1.6 1.6 0.00 2.31 2.31 79 1013.9
20260905175203 25 52 4.8 6.4 0.00 2.31 2.31 80 1013.9
20260905174659 25 91 3.2 3.2 0.00 2.31 2.31 79 1014.2
20260905174154 26 98 3.2 3.2 0.00 2.31 2.31 77 1014.2
20260905173650 25 91 1.6 3.2 0.00 2.31 2.31 78 1014.0
20260905173146 25 82 1.6 0.0 0.00 2.31 2.31 79 1014.1
20260905172645 25 83 1.6 3.2 0.00 2.31 2.31 79 1014.2
20260905172139 26 100 0.0 0.0 0.00 2.31 2.31 78 1014.3
20260905171636 26 88 1.6 3.2 0.00 2.31 2.31 79 1014.2
20260905171131 25 112 1.6 1.6 0.00 2.31 2.31 79 1014.3
20260905170628 26 108 8.0 6.4 0.00 2.31 2.31 76 1014.4
20260905170123 26 109 3.2 3.2 0.00 2.31 2.31 76 1014.4
20260905165617 25 105 1.6 3.2 0.00 2.31 2.31 80 1014.3
20260905165113 26 73 3.2 4.8 0.00 2.31 2.31 77 1014.4
20260905164608 25 67 1.6 1.6 0.00 2.31 2.31 79 1014.3
20260905164107 26 66 3.2 3.2 0.00 2.31 2.31 76 1014.2
20260905163603 25 113 1.6 1.6 0.00 2.31 2.31 78 1014.5
20260905163100 25 112 3.2 4.8 0.00 2.31 2.31 80 1014.4
20260905162555 25 61 4.8 4.8 0.00 2.31 2.31 80 1014.4
20260905162054 25 98 3.2 3.2 0.00 2.31 2.31 80 1014.4
20260905161549 24 86 1.6 3.2 0.00 2.31 2.31 83 1014.5
20260905161047 25 144 4.8 6.4 0.00 2.31 2.31 81 1014.5
20260905160545 26 100 0.0 1.6 0.00 2.31 2.31 78 1014.4
20260905160046 26 60 0.0 0.0 0.00 2.31 2.31 74 1014.5
20260905155545 26 43 3.2 3.2 0.00 2.31 2.31 74 1014.3
20260905155044 26 108 3.2 3.2 0.00 2.31 2.31 76 1014.3
20260905154539 26 104 3.2 3.2 0.00 2.31 2.31 77 1014.3
20260905154035 25 18 0.0 0.0 0.00 2.31 2.31 78 1014.3
20260905153531 25 39 3.2 3.2 0.00 2.31 2.31 79 1014.3
20260905153030 25 143 1.6 1.6 0.00 2.31 2.31 79 1014.3
20260905152525 25 35 3.2 4.8 0.00 2.31 2.31 78 1014.4
20260905152020 25 76 1.6 1.6 0.00 2.31 2.31 81 1014.5
20260905151516 25 86 0.0 0.0 0.00 2.31 2.31 81 1014.3
20260905151011 25 86 1.6 1.6 0.00 2.31 2.31 80 1014.3
20260905150506 24 107 0.0 0.0 0.00 2.31 2.31 80 1014.3
20260905150003 24 84 0.0 0.0 0.00 2.31 2.31 82 1014.4
20260905145457 24 120 3.2 3.2 0.00 2.31 2.31 81 1014.2
20260905144956 23 80 1.6 1.6 0.00 2.31 2.31 83 1014.4
20260905144452 24 111 0.0 0.0 0.00 2.31 2.31 83 1014.4
20260905143951 25 111 0.0 0.0 0.00 2.31 2.31 82 1014.3
20260905143450 24 111 0.0 0.0 0.00 2.31 2.31 84 1014.2
20260905142945 23 105 1.6 1.6 0.00 2.31 2.31 85 1014.1
20260905142443 23 105 1.6 1.6 0.00 2.31 2.31 85 1014.2
20260905141939 22 138 1.6 1.6 0.00 2.31 2.31 88 1014.2
20260905141434 22 137 0.0 0.0 0.00 2.31 2.31 89 1014.2
20260905140930 22 137 0.0 0.0 0.00 2.31 2.31 91 1014.1
20260905140425 22 136 1.6 1.6 0.00 2.31 2.31 90 1014.1
20260905135924 21 30 0.0 0.0 0.00 2.31 2.31 92 1014.0
20260905135420 21 30 1.6 1.6 0.00 2.31 2.31 93 1014.1
20260905134915 21 79 1.6 1.6 0.00 2.31 2.31 95 1014.0
20260905134414 21 78 1.6 1.6 0.00 2.31 2.31 95 1014.0
20260905133909 21 72 4.8 4.8 0.00 2.31 2.31 94 1013.6
20260905133403 21 43 3.2 3.2 0.00 2.31 2.31 95 1014.0
20260905132903 21 76 1.6 1.6 0.00 2.31 2.31 95 1014.0
20260905132359 21 71 0.0 0.0 0.00 2.31 2.31 95 1014.0
20260905131858 21 70 0.0 0.0 0.00 2.31 2.31 95 1014.1
20260905131354 21 71 1.6 1.6 0.00 2.31 2.31 96 1014.0
20260905130849 21 80 0.0 0.0 0.00 2.31 2.31 96 1013.7
20260905130348 21 77 1.6 1.6 0.00 2.31 2.31 96 1014.0
20260905125843 21 76 1.6 1.6 0.00 2.31 2.31 96 1013.7
20260905125338 21 104 3.2 3.2 0.00 2.31 2.31 97 1013.6
20260905124834 20 107 1.6 1.6 0.00 2.31 2.31 96 1013.7
20260905124330 21 80 3.2 1.6 0.00 2.31 2.31 95 1013.6
20260905123830 20 116 1.6 1.6 0.00 2.31 2.31 97 1013.6
20260905123327 20 103 0.0 0.0 0.00 2.31 2.31 98 1013.7
20260905122827 20 104 1.6 1.6 0.00 2.31 2.31 97 1013.5
20260905122326 21 82 0.0 0.0 0.00 2.31 2.31 96 1013.4
20260905121821 21 73 3.2 3.2 0.00 2.31 2.31 97 1013.4
20260905121318 21 90 3.2 3.2 0.00 2.31 2.31 97 1013.1
20260905120816 20 100 0.0 0.0 0.00 2.31 2.31 99 1013.4
20260905120311 20 100 0.0 0.0 0.00 2.31 2.31 99 1013.1
20260905115806 20 100 0.0 0.0 0.00 2.31 2.31 99 1013.2
20260905115306 20 100 1.6 1.6 0.00 2.31 2.31 99 1012.8
20260905114806 20 100 1.6 1.6 0.00 2.31 2.31 99 1012.7
20260905114305 19 100 0.0 0.0 0.00 2.31 2.31 99 1012.8
20260905113804 19 100 0.0 0.0 0.00 2.31 2.31 99 1012.8
20260905113300 19 100 0.0 0.0 0.00 2.31 2.31 99 1012.8
20260905112755 19 101 1.6 1.6 0.00 2.31 2.31 99 1012.7
20260905112250 19 101 1.6 1.6 0.00 2.31 2.31 99 1012.5
20260905111745 19 100 0.0 0.0 0.00 2.31 2.31 99 1012.4
20260905111245 19 100 0.0 0.0 0.00 2.31 2.31 99 1012.4
20260905110745 19 100 0.0 0.0 0.00 2.31 2.31 99 1012.4
20260905110244 19 100 0.0 0.0 0.00 2.31 2.31 99 1012.4
20260905105740 19 100 1.6 1.6 0.00 2.31 2.31 99 1012.3